sat.trackr.live / text

‹ back to catalog

STARLINK-31849

NORAD 59734 · 2024-090E

PAYLOAD ACTIVE UNKNOWN

§ Identity

Operator
Country
US
Launch date
2024-05-13
Launch site
AFETR
Launch vehicle
Mass (kg)
RCS (m²)

Purposes: comms

External: N2YO · Heavens-Above · Gunter

§ Orbital elements

Epoch: 2026-05-25T03:37:59.333088Z

Period
94.27 min
Inclination
43.0030°
Eccentricity
0.0001265
Mean motion
15.27576269 rev/d
Perigee alt
482.2 km
Apogee alt
483.9 km
Semi-major
6,861.2 km
B*
2.1412e-5
RAAN
104.7862°
Arg perigee
259.6494°
Mean anomaly
100.4215°
Rev number
11,521

§ Raw data

STARLINK-318491 59734U 24090E   26145.15138117  .00000327  00000+0  21412-4 0  99932 59734  43.0030 104.7862 0001265 259.6494 100.4215 15.27576269115214

JSON: /api/v1/satellites/59734 · /tle

For live sub-satellite position, see the globe view (requires WebGL).

§ Visibility from observer

Set your observer location to see the next 7 days of passes ≥ 10°. The values pass through the URL so the page stays shareable.

No JS? Fill the form by hand. The geolocation button needs JavaScript.